Torna al catalogo

FENGYUN 1C DEB

AttivoPO
NORAD 31931·DEBRIS·🇨🇳 China

Lanciato May 10, 1999 da Taiyuan Satellite Launch Center

Loading…

Prossimi Passaggi (prossime 24 ore)

TLE

AggiornatoSource: Space-Track

Epoca: Sep 14, 2026, 10:18 UTC

1 31931U 99025CMG 26257.42971165  .00000075  00000-0  11190-3 0  9996
2 31931  97.8126 151.9956 0420828 272.8512  82.4548 13.42975019689228

Traccia FENGYUN 1C DEB in tempo reale con AllMySat

Download on the App Store